Time,TemperatureF,DewpointF,PressureIn,WindDirection,WindDirectionDegrees,WindSpeedMPH,WindSpeedGustMPH,Humidity,HourlyPrecipIn,Conditions,Clouds,dailyrainin,SoftwareType,DateUTC
2013-07-01 00:07:00,69.7,69.0,29.86,SSW,211,0.0,1.0,98,0.01,,,1.11,weatherlink.com 1.10,2013-07-01 04:07:00,
2013-07-01 00:22:00,69.4,69.0,29.87,SSW,211,0.0,1.0,98,0.01,,,1.11,weatherlink.com 1.10,2013-07-01 04:22:00,
2013-07-01 00:37:00,69.3,69.0,29.87,SSW,211,0.0,0.0,98,0.01,,,1.11,weatherlink.com 1.10,2013-07-01 04:37:00,
2013-07-01 00:52:00,69.4,69.0,29.86,SSW,211,4.0,5.0,98,0.01,,,1.11,weatherlink.com 1.10,2013-07-01 04:52:00,
2013-07-01 01:07:00,69.9,69.0,29.87,SSW,211,0.0,5.0,98,0.00,,,1.11,weatherlink.com 1.10,2013-07-01 05:07:00,
2013-07-01 01:22:00,69.6,69.0,29.87,SSW,211,1.0,3.0,98,0.00,,,1.11,weatherlink.com 1.10,2013-07-01 05:22:00,
2013-07-01 01:37:00,69.8,69.0,29.87,SSW,211,0.0,3.0,98,0.00,,,1.11,weatherlink.com 1.10,2013-07-01 05:37:00,
2013-07-01 01:52:00,69.5,69.0,29.87,SSW,211,0.0,0.0,98,0.00,,,1.11,weatherlink.com 1.10,2013-07-01 05:52:00,
2013-07-01 02:07:00,69.4,69.0,29.87,SSW,211,0.0,0.0,98,0.00,,,1.11,weatherlink.com 1.10,2013-07-01 06:07:00,
2013-07-01 02:22:00,69.6,69.0,29.87,SSW,211,0.0,1.0,98,0.00,,,1.11,weatherlink.com 1.10,2013-07-01 06:22:00,
2013-07-01 02:37:00,69.5,69.0,29.86,SSW,211,0.0,2.0,98,0.00,,,1.11,weatherlink.com 1.10,2013-07-01 06:37:00,
2013-07-01 02:52:00,69.5,69.0,29.86,SSW,211,0.0,2.0,98,0.00,,,1.11,weatherlink.com 1.10,2013-07-01 06:52:00,
2013-07-01 03:07:00,69.7,69.0,29.86,SSW,211,0.0,1.0,98,0.00,,,1.11,weatherlink.com 1.10,2013-07-01 07:07:00,
2013-07-01 03:22:00,69.8,70.0,29.86,SSW,211,0.0,1.0,99,0.00,,,1.11,weatherlink.com 1.10,2013-07-01 07:22:00,
2013-07-01 03:37:00,69.8,69.0,29.86,SSW,211,0.0,1.0,98,0.00,,,1.11,weatherlink.com 1.10,2013-07-01 07:37:00,
2013-07-01 03:52:00,69.7,69.0,29.86,SSW,211,0.0,1.0,98,0.00,,,1.11,weatherlink.com 1.10,2013-07-01 07:52:00,
2013-07-01 04:07:00,69.7,69.0,29.86,ESE,112,0.0,2.0,98,0.00,,,1.11,weatherlink.com 1.10,2013-07-01 08:07:00,
2013-07-01 04:23:00,69.7,69.0,29.86,ESE,112,0.0,2.0,98,0.00,,,0.00,weatherlink.com 1.10,2013-07-01 08:23:00,
2013-07-01 04:38:00,69.8,70.0,29.87,ESE,112,0.0,1.0,100,0.00,,,0.00,weatherlink.com 1.10,2013-07-01 08:38:00,
2013-07-01 04:53:00,69.9,70.0,29.87,ESE,112,1.0,2.0,99,0.00,,,0.00,weatherlink.com 1.10,2013-07-01 08:53:00,
2013-07-01 05:08:00,69.9,70.0,29.87,ESE,112,0.0,1.0,99,0.00,,,0.00,weatherlink.com 1.10,2013-07-01 09:08:00,
2013-07-01 05:23:00,69.9,70.0,29.88,ESE,112,0.0,0.0,99,0.00,,,0.00,weatherlink.com 1.10,2013-07-01 09:23:00,
2013-07-01 05:38:00,69.9,70.0,29.88,ESE,112,0.0,1.0,99,0.00,,,0.00,weatherlink.com 1.10,2013-07-01 09:38:00,
2013-07-01 05:53:00,69.9,70.0,29.88,ESE,112,0.0,1.0,99,0.00,,,0.00,weatherlink.com 1.10,2013-07-01 09:53:00,
2013-07-01 06:08:00,70.0,70.0,29.88,ESE,112,2.0,2.0,99,0.00,,,0.00,weatherlink.com 1.10,2013-07-01 10:08:00,
2013-07-01 06:23:00,70.0,70.0,29.89,ESE,114,0.0,2.0,99,0.00,,,0.00,weatherlink.com 1.10,2013-07-01 10:23:00,
2013-07-01 06:38:00,70.1,70.0,29.89,ESE,114,0.0,2.0,99,0.00,,,0.00,weatherlink.com 1.10,2013-07-01 10:38:00,
2013-07-01 06:53:00,70.2,70.0,29.89,ESE,114,0.0,1.0,99,0.00,,,0.00,weatherlink.com 1.10,2013-07-01 10:53:00,
2013-07-01 07:08:00,70.4,70.0,29.89,ESE,114,1.0,3.0,99,0.00,,,0.00,weatherlink.com 1.10,2013-07-01 11:08:00,
2013-07-01 07:23:00,70.5,70.0,29.89,ESE,114,0.0,3.0,99,0.00,,,0.00,weatherlink.com 1.10,2013-07-01 11:23:00,
2013-07-01 07:38:00,70.6,70.0,29.89,ESE,107,0.0,3.0,99,0.00,,,0.00,weatherlink.com 1.10,2013-07-01 11:38:00,
2013-07-01 07:53:00,70.7,70.0,29.89,South,172,0.0,4.0,99,0.00,,,0.00,weatherlink.com 1.10,2013-07-01 11:53:00,
2013-07-01 08:08:00,70.9,71.0,29.89,South,172,0.0,2.0,99,0.00,,,0.00,weatherlink.com 1.10,2013-07-01 12:08:00,
2013-07-01 08:23:00,71.1,71.0,29.90,NE,48,1.0,5.0,99,0.00,,,0.00,weatherlink.com 1.10,2013-07-01 12:23:00,
2013-07-01 08:38:00,71.0,70.0,29.90,NE,48,0.0,1.0,98,0.01,,,0.01,weatherlink.com 1.10,2013-07-01 12:38:00,
2013-07-01 08:53:00,71.0,70.0,29.90,NE,48,1.0,3.0,98,0.06,,,0.06,weatherlink.com 1.10,2013-07-01 12:53:00,
2013-07-01 09:08:00,71.0,70.0,29.90,NE,48,0.0,1.0,98,0.09,,,0.09,weatherlink.com 1.10,2013-07-01 13:08:00,
2013-07-01 09:23:00,71.1,71.0,29.91,NE,48,0.0,1.0,98,0.13,,,0.13,weatherlink.com 1.10,2013-07-01 13:23:00,
2013-07-01 09:38:00,71.0,70.0,29.91,West,261,6.0,7.0,98,0.18,,,0.20,weatherlink.com 1.10,2013-07-01 13:38:00,
2013-07-01 09:53:00,69.8,69.0,29.92,WSW,238,4.0,8.0,98,0.21,,,0.27,weatherlink.com 1.10,2013-07-01 13:53:00,
2013-07-01 10:08:00,69.5,69.0,29.92,SW,231,0.0,4.0,98,0.25,,,0.34,weatherlink.com 1.10,2013-07-01 14:08:00,
2013-07-01 10:23:00,69.4,69.0,29.93,SSW,208,2.0,4.0,98,0.26,,,0.39,weatherlink.com 1.10,2013-07-01 14:23:00,
2013-07-01 10:38:00,69.3,69.0,29.94,SSW,202,3.0,5.0,98,0.24,,,0.44,weatherlink.com 1.10,2013-07-01 14:38:00,
2013-07-01 10:53:00,69.1,69.0,29.93,SW,215,0.0,5.0,98,0.22,,,0.49,weatherlink.com 1.10,2013-07-01 14:53:00,
2013-07-01 11:08:00,69.2,69.0,29.91,SSW,194,1.0,2.0,99,0.19,,,0.53,weatherlink.com 1.10,2013-07-01 15:08:00,
2013-07-01 11:23:00,69.8,70.0,29.90,ESE,121,1.0,4.0,99,0.17,,,0.56,weatherlink.com 1.10,2013-07-01 15:23:00,
2013-07-01 11:38:00,70.8,71.0,29.90,SE,132,0.0,3.0,99,0.13,,,0.58,weatherlink.com 1.10,2013-07-01 15:38:00,
2013-07-01 11:53:00,71.5,71.0,29.91,WNW,287,1.0,4.0,99,0.09,,,0.58,weatherlink.com 1.10,2013-07-01 15:53:00,
2013-07-01 12:08:00,71.5,71.0,29.91,WNW,293,2.0,5.0,99,0.05,,,0.58,weatherlink.com 1.10,2013-07-01 16:08:00,
2013-07-01 12:23:00,71.5,71.0,29.91,West,262,2.0,3.0,98,0.02,,,0.58,weatherlink.com 1.10,2013-07-01 16:23:00,
2013-07-01 12:38:00,71.9,72.0,29.92,SW,227,5.0,6.0,99,0.00,,,0.58,weatherlink.com 1.10,2013-07-01 16:38:00,
2013-07-01 12:54:00,72.6,72.0,29.92,SW,223,2.0,7.0,99,0.00,,,0.58,weatherlink.com 1.10,2013-07-01 16:54:00,
2013-07-01 13:09:00,73.0,72.0,29.92,WSW,249,4.0,6.0,98,0.00,,,0.58,weatherlink.com 1.10,2013-07-01 17:09:00,
2013-07-01 13:24:00,73.1,73.0,29.92,WSW,238,3.0,6.0,98,0.00,,,0.58,weatherlink.com 1.10,2013-07-01 17:24:00,
2013-07-01 13:39:00,73.6,73.0,29.92,SW,215,2.0,5.0,97,0.00,,,0.58,weatherlink.com 1.10,2013-07-01 17:39:00,
2013-07-01 13:54:00,73.7,73.0,29.92,SSW,207,3.0,6.0,96,0.00,,,0.58,weatherlink.com 1.10,2013-07-01 17:54:00,
2013-07-01 14:09:00,73.8,72.0,29.92,SW,214,0.0,4.0,95,0.00,,,0.58,weatherlink.com 1.10,2013-07-01 18:09:00,
2013-07-01 14:24:00,74.2,73.0,29.92,SSW,206,2.0,4.0,95,0.00,,,0.58,weatherlink.com 1.10,2013-07-01 18:24:00,
2013-07-01 14:39:00,74.2,73.0,29.92,SSW,198,2.0,6.0,95,0.01,,,0.59,weatherlink.com 1.10,2013-07-01 18:39:00,
2013-07-01 14:54:00,74.4,73.0,29.92,SSW,199,6.0,6.0,95,0.01,,,0.59,weatherlink.com 1.10,2013-07-01 18:54:00,
2013-07-01 15:09:00,74.4,73.0,29.93,SW,217,7.0,9.0,95,0.01,,,0.59,weatherlink.com 1.10,2013-07-01 19:09:00,
2013-07-01 15:24:00,74.2,72.0,29.93,SSW,208,7.0,9.0,94,0.01,,,0.59,weatherlink.com 1.10,2013-07-01 19:24:00,
2013-07-01 15:39:00,74.1,72.0,29.93,SW,221,5.0,10.0,94,0.00,,,0.59,weatherlink.com 1.10,2013-07-01 19:39:00,
2013-07-01 15:54:00,74.3,73.0,29.93,SW,221,3.0,7.0,95,0.00,,,0.59,weatherlink.com 1.10,2013-07-01 19:54:00,
2013-07-01 16:09:00,74.5,73.0,29.92,South,184,5.0,7.0,95,0.00,,,0.59,weatherlink.com 1.10,2013-07-01 20:09:00,
2013-07-01 16:24:00,74.6,73.0,29.92,South,181,2.0,8.0,94,0.00,,,0.59,weatherlink.com 1.10,2013-07-01 20:24:00,
2013-07-01 16:39:00,74.5,73.0,29.91,SSW,196,4.0,7.0,94,0.00,,,0.59,weatherlink.com 1.10,2013-07-01 20:39:00,
2013-07-01 16:54:00,74.7,73.0,29.91,South,184,3.0,8.0,94,0.01,,,0.60,weatherlink.com 1.10,2013-07-01 20:54:00,
2013-07-01 17:09:00,74.8,73.0,29.91,South,176,3.0,8.0,94,0.01,,,0.60,weatherlink.com 1.10,2013-07-01 21:09:00,
2013-07-01 17:24:00,74.7,73.0,29.91,SSW,213,6.0,9.0,94,0.01,,,0.60,weatherlink.com 1.10,2013-07-01 21:24:00,
2013-07-01 17:39:00,74.4,73.0,29.91,SSW,205,3.0,9.0,94,0.01,,,0.60,weatherlink.com 1.10,2013-07-01 21:39:00,
2013-07-01 17:54:00,74.2,73.0,29.92,SW,221,10.0,10.0,95,0.00,,,0.60,weatherlink.com 1.10,2013-07-01 21:54:00,
2013-07-01 18:09:00,74.2,73.0,29.92,SSW,205,5.0,9.0,95,0.00,,,0.60,weatherlink.com 1.10,2013-07-01 22:09:00,
2013-07-01 18:24:00,74.2,73.0,29.92,SW,223,4.0,9.0,95,0.00,,,0.60,weatherlink.com 1.10,2013-07-01 22:24:00,
2013-07-01 18:39:00,74.1,72.0,29.93,SSW,202,7.0,10.0,94,0.00,,,0.60,weatherlink.com 1.10,2013-07-01 22:39:00,
2013-07-01 18:54:00,74.0,73.0,29.93,South,190,4.0,10.0,95,0.00,,,0.60,weatherlink.com 1.10,2013-07-01 22:54:00,
2013-07-01 19:09:00,74.0,72.0,29.93,SSW,198,6.0,12.0,94,0.00,,,0.60,weatherlink.com 1.10,2013-07-01 23:09:00,
2013-07-01 19:24:00,73.7,72.0,29.94,SSW,210,6.0,9.0,93,0.00,,,0.60,weatherlink.com 1.10,2013-07-01 23:24:00,
2013-07-01 19:39:00,73.5,71.0,29.94,SW,219,7.0,11.0,93,0.00,,,0.60,weatherlink.com 1.10,2013-07-01 23:39:00,
2013-07-01 19:54:00,73.2,71.0,29.94,South,189,9.0,9.0,93,0.00,,,0.60,weatherlink.com 1.10,2013-07-01 23:54:00,
2013-07-01 20:09:00,72.9,71.0,29.95,SW,215,3.0,8.0,94,0.00,,,0.60,weatherlink.com 1.10,2013-07-02 00:09:00,
2013-07-01 20:24:00,72.7,71.0,29.96,SSW,209,6.0,10.0,94,0.00,,,0.60,weatherlink.com 1.10,2013-07-02 00:24:00,
2013-07-01 20:39:00,72.5,71.0,29.96,SSW,200,5.0,8.0,94,0.00,,,0.60,weatherlink.com 1.10,2013-07-02 00:39:00,
2013-07-01 20:54:00,72.4,71.0,29.96,SSW,211,6.0,7.0,95,0.00,,,0.60,weatherlink.com 1.10,2013-07-02 00:54:00,
2013-07-01 21:09:00,72.2,71.0,29.97,South,190,6.0,7.0,95,0.00,,,0.60,weatherlink.com 1.10,2013-07-02 01:09:00,
2013-07-01 21:24:00,72.2,71.0,29.97,South,186,4.0,8.0,95,0.00,,,0.60,weatherlink.com 1.10,2013-07-02 01:24:00,
2013-07-01 21:39:00,72.1,71.0,29.98,SSE,165,2.0,8.0,95,0.00,,,0.60,weatherlink.com 1.10,2013-07-02 01:39:00,
2013-07-01 21:54:00,71.9,71.0,29.98,SSW,194,6.0,8.0,95,0.00,,,0.60,weatherlink.com 1.10,2013-07-02 01:54:00,
2013-07-01 22:09:00,71.8,70.0,29.98,South,184,5.0,9.0,95,0.00,,,0.60,weatherlink.com 1.10,2013-07-02 02:09:00,
2013-07-01 22:24:00,71.6,70.0,29.98,South,191,3.0,8.0,96,0.00,,,0.60,weatherlink.com 1.10,2013-07-02 02:24:00,
2013-07-01 22:39:00,71.5,70.0,29.98,SSW,198,5.0,8.0,96,0.00,,,0.60,weatherlink.com 1.10,2013-07-02 02:39:00,
2013-07-01 22:54:00,71.5,70.0,29.98,South,173,3.0,6.0,96,0.00,,,0.60,weatherlink.com 1.10,2013-07-02 02:54:00,
2013-07-01 23:09:00,71.5,70.0,29.98,SSW,209,3.0,7.0,96,0.00,,,0.60,weatherlink.com 1.10,2013-07-02 03:09:00,
2013-07-01 23:24:00,71.6,70.0,29.98,South,189,3.0,7.0,96,0.00,,,0.60,weatherlink.com 1.10,2013-07-02 03:24:00,
2013-07-01 23:39:00,71.5,70.0,29.98,SSW,195,2.0,6.0,96,0.00,,,0.60,weatherlink.com 1.10,2013-07-02 03:39:00,
2013-07-01 23:54:00,71.5,70.0,29.99,SSW,207,2.0,6.0,96,0.00,,,0.60,weatherlink.com 1.10,2013-07-02 03:54:00,